Content
SEND FEEDBACK

Daily
Averages
Monthly
Summary
United Kingdom

SOUTH ACTON, ENGLAND


Home > Europe > United Kingdom > England
Elevation: 16 feet     Latitude: 51 30N     Longitude: 000 18W

WEATHER
 
SELECT A DAY
Number of Records: 149,681;   Date Range: 7/1/96 - 8/25/14
 
SHARE

PRINT THIS DATA

[ ← Previous Day ]
WEATHER ALMANAC - OCTOBER 1, 2013
[ Next Day → ]
[ °C ]   °F
Weather ElementAverageHighLow
Temperature58.3 °F63 °F (3:50 pm)51.8 °F (4:50 am)
Dewpoint51 °F53.6 °F (10:50 am)48.2 °F (1:50 am)
Humidity75.8 %94 % (4:50 am)54 % (3:50 pm)
Barometer29.79 in29.83 in (8:50 pm)29.77 in (12:50 am)
Wind Speed10 mph13.8 mph (2:50 pm)
Weather ElementAverage
Visibility6.1 mi
Wind DirectionESE (97.7 °)

Weather ElementTotal
Precipitation---
Heating Degree Days7.6 (Base 65)
Growing Degree Days7.4 (Base 50)
Averaged from 31 records on October 1, 2013
WEATHER CONDITIONS BREAKOUT
WIND DIRECTION BREAKOUT
WEATHER BY HOUR - OCTOBER 1, 2013
[ °C ]   °F
Local TimeTemperatureDewpointHumidityBarometerVisibilityWind DirectionWind SpeedGust SpeedPrecipitationEventsConditions
12:50 AM53.6 °F50.0 °F88 %29.77 in6.2 miENE (60°)4.6 mphMostly Cloudy
1:50 AM53.6 °F48.2 °F82 %29.77 in5.6 miNE (40°)4.6 mphPartly Cloudy
2:50 AM53.6 °F50.0 °F88 %29.77 in5.0 miENE (70°)9.2 mphPartly Cloudy
3:50 AM53.0 °F50.0 °F84 %29.78 in5.0 miEast (80°)4.6 mph
3:50 AM53.6 °F50.0 °F88 %29.77 in5.0 miEast (80°)4.6 mph
4:50 AM51.8 °F50.0 °F94 %29.77 in4.3 miEast (80°)5.8 mph
5:50 AM51.8 °F50.0 °F94 %29.77 in5.0 miEast (90°)5.8 mph
6:50 AM53.6 °F50.0 °F88 %29.77 in3.7 miEast (80°)9.2 mphHaze
6:50 AM53.0 °F50.0 °F84 %29.78 in4.0 miEast (80°)9.2 mphHaze
7:50 AM53.6 °F50.0 °F88 %29.77 in3.7 miEast (90°)5.8 mphHaze
8:50 AM55.4 °F51.8 °F88 %29.80 in3.7 miEast (80°)6.9 mphHaze
9:50 AM57.0 °F52.0 °F79 %29.81 in4.0 miEast (100°)9.2 mphHaze
9:50 AM57.2 °F51.8 °F82 %29.80 in4.3 miEast (100°)9.2 mphHaze
10:50 AM60.8 °F53.6 °F77 %29.80 in5.0 miEast (100°)12.7 mphHaze
11:50 AM60.8 °F53.6 °F77 %29.80 in6.2 miESE (110°)12.7 mphMostly Cloudy
12:50 PM62.6 °F53.6 °F72 %29.80 in6.2 miEast (100°)12.7 mphMostly Cloudy
12:50 PM62.0 °F53.0 °F63 %29.80 in9.0 miEast (100°)12.7 mphMostly Cloudy
1:50 PM62.6 °F53.6 °F72 %29.77 in6.2 miEast (100°)12.7 mphOvercast
2:50 PM62.6 °F51.8 °F68 %29.80 in6.2 miSE (130°)13.8 mphOvercast
3:50 PM63.0 °F51.0 °F54 %29.80 in16.0 miESE (120°)13.8 mphOvercast
3:50 PM62.6 °F50.0 °F63 %29.77 in6.2 miESE (120°)13.8 mphOvercast
4:50 PM62.6 °F50.0 °F63 %29.80 in6.2 miSE (130°)13.8 mphOvercast
5:50 PM62.6 °F50.0 °F63 %29.80 in6.2 miSE (130°)12.7 mphOvercast
6:50 PM60.8 °F50.0 °F68 %29.80 in6.2 miEast (100°)12.7 mphOvercast
6:50 PM60.0 °F51.0 °F63 %29.81 in9.0 miEast (100°)12.7 mphOvercast
7:50 PM60.8 °F51.8 °F72 %29.80 in6.2 miESE (110°)9.2 mphOvercast
8:50 PM60.8 °F51.8 °F72 %29.83 in6.2 miESE (110°)9.2 mphOvercast
9:50 PM60.0 °F52.0 °F67 %29.83 in9.0 miESE (110°)10.4 mphOvercast
9:50 PM60.8 °F51.8 °F72 %29.83 in6.2 miESE (110°)10.4 mphOvercast
10:50 PM60.8 °F50.0 °F68 %29.80 in6.2 miESE (110°)12.7 mphOvercast
11:50 PM60.8 °F50.0 °F68 %29.80 in6.2 miESE (110°)13.8 mphOvercast
Hourly data recorded from EGWU, located miles away from South Acton, England







STORIES FROM OUR PARTNERS